Location: Bernay
(48.6766°N, 2.9386°E)
Time: 20:47:38
(UTC+00:00)

SL-4 R/B - Pass Details

Date: 12 January 2026
Orbit: 383 x 518 km, 51.6° (Epoch: 14 February)

Event Time Altitude Azimuth Distance (km) Brightness Sun altitude
Rises 18:40:03 0° 286° (WNW) 2,638 6.6 -23.0°
Reaches altitude 10° 18:42:50 10° 267° (W) 1,732 5.7 -23.5°
Maximum altitude 18:45:29 17° 225° (SW) 1,309 4.5 -23.9°
Drops below altitude 10° 18:48:03 10° 182° (S) 1,683 4.6 -24.4°
Enters shadow 18:48:04 10° 182° (S) 1,683 4.6 -24.4°
